ATLAS 5 CENTAUR DEB, 44659

Orbit data source: Space-Track

ATLAS 5 CENTAUR DEB, 44659 is space debris in HEO originally from a launch on Wed, 17 Oct 2018 UTC launched from the Air Force Eastern Test Range (AFETR). Debris objects in space refer to the collection of defunct objects orbiting the Earth. Examples of debris include non-operational satellites, rocket bodies, and fragments generated from explosions, collisions, or faulty payload assembly.

Loading next visibility...
Identifier
44659, 2018-079V
Orbit
HEO
Country
Flag of USUS
Related business
Flag of USUnited Launch Alliance/Lockheed Martin (US)
Manufacturer
ULA Decatur
Mission
Spacecraft
Bus & Motor
Unknown
Mass
Unknown
Launch date (UTC)
2018-10-17 (8 years ago)
Launch vehicle
Unknown
Launch site
Air Force Eastern Test Range (AFETR)
Object type
Payload
Rocket body
Debris
Shape & HBR
Unknown shape, 1.1 m
Radar Cross Section
Medium (>0.1 m² and <1 m²)

Expand to show TLE details & history
Last TLE update: 3 days ago

TLE from 3 days ago
0 ATLAS 5 CENTAUR DEB
1 44659U 18079V   26232.79442990 -.00000137  00000-0  00000-0 0  9994
2 44659  13.5298  12.4377 4539480   1.5187 359.3884  1.90593829 50592
Epoch: 2026-08-20T19:03Z
TLE epoch observation values (Epoch: 2026-08-20T19:03:58.743Z)
Latitude
0.00002°
Longitude
117.33044°
Altitude
8,631.32 km
Speed
6.213 km/s
True Right ascension
00h 49m 48s
True Declination
0° 00' 00"
Sunlit
Object was in daylight at epoch
Visualization orbit readout
Latitude
Unknown
Longitude
Unknown
Altitude
Unknown
Speed
Unknown
Apparent Right ascension
Unknown
Apparent Declination
Unknown
Sunlit
N/A
Visualization observer readout
Local Sidereal Time
18:16:54
Azimuth
Unknown
Elevation
Unknown
Doppler factor
Unknown
Orbital elements
Apogee altitude
33,577.491 km
Perigee altitude
8,627.799 km
Semi-major axis
27,480.782 km
Eccentricity
0.45395
Inclination
13.5298°
RAAN
12.4377°
Arg. of periapsis
1.5187°
True anomaly
358.17255°
Mean anomaly
359.3884°
Eccentric anomaly
358.88002°
Mean motion
0.47643 °/min
Orbital period
755.62 mins
BSTAR
0
Loading maneuver chart data...
Computing Atmospheric mass density...

Documentation

Showing up to 5 results
|